1510920000.99,59165,8.81,73634.0,-1.95,-4.05,-4.01,0,*57
1510920002.24,59166,8.81,73628.8,-1.97,-4.01,-4.01,0,*52
1510920003.52,59167,8.81,73628.8,-1.95,-4.01,-4.01,0,*51
1510920004.71,59168,8.81,73628.0,-1.97,-3.87,-3.87,0,*5C
1510920005.91,59169,8.81,73630.3,-1.97,-3.79,-3.79,0,*5D
1510920007.11,59170,8.81,73630.3,-1.97,-3.75,-3.75,0,*55
1510920008.34,59171,8.81,73628.8,-1.97,-3.67,-3.67,0,*54
1510920009.54,59172,8.81,73628.0,-1.97,-3.79,-3.79,0,*57
1510920010.74,59173,8.81,73632.3,-1.97,-3.75,-3.79,0,*5A
1510920011.97,59174,8.81,73632.5,-1.95,-3.75,-3.75,0,*53
1510920013.25,59175,8.81,73632.0,-1.95,-3.63,-3.59,0,*5B
1510920014.49,59176,8.81,73632.3,-1.95,-3.67,-3.75,0,*52
1510920015.69,59177,8.81,73628.3,-1.97,-3.79,-3.75,0,*5E
1510920016.9,59178,8.81,73632.3,-1.97,-3.75,-3.75,0,*5D
1510920018.13,59179,8.81,73630.0,-1.95,-3.79,-3.75,0,*52
1510920019.35,59180,8.81,73632.8,-1.95,-3.79,-3.87,0,*59
1510920020.55,59181,8.81,73632.5,-1.97,-3.79,-3.79,0,*5B
1510920021.75,59182,8.81,73630.5,-1.97,-3.79,-3.75,0,*54
1510920022.99,59183,8.81,73634.0,-1.97,-3.63,-3.63,0,*59
1510920024.25,59184,8.81,73632.0,-1.99,-3.71,-3.71,0,*50
1510920025.5,59185,8.81,73632.3,-1.99,-3.79,-3.71,0,*59
1510920026.76,59186,8.81,73630.3,-1.99,-3.71,-3.67,0,*55
1510920027.99,59187,8.81,73632.3,-1.97,-3.67,-3.67,0,*5D
1510920029.23,59188,8.81,73630.5,-1.97,-3.67,-3.63,0,*56
1510920030.47,59189,8.81,73634.0,-1.97,-3.63,-3.63,0,*53
1510920031.7,59190,8.81,73630.5,-1.97,-3.67,-3.63,0,*5F
1510920032.92,59191,8.81,73630.3,-1.97,-3.67,-3.75,0,*59
1510920034.15,59192,8.81,73630.0,-1.97,-3.67,-3.63,0,*5D
1510920035.38,59193,8.81,73634.8,-1.97,-3.67,-3.63,0,*5C
1510920036.61,59194,8.81,73632.5,-1.95,-3.79,-3.79,0,*5D
1510920037.85,59195,8.81,73632.3,-1.97,-3.67,-3.63,0,*5A
1510920039.08,59196,8.81,73632.3,-1.97,-3.67,-3.67,0,*5D
1510920040.32,59197,8.81,73634.3,-1.97,-3.67,-3.63,0,*58
1510920041.55,59198,8.81,73632.3,-1.97,-3.67,-3.67,0,*53
1510920042.78,59199,8.81,73630.0,-1.97,-3.67,-3.67,0,*52
1510920043.98,59200,8.81,73632.8,-1.97,-3.75,-3.79,0,*5D
1510920045.2,59201,8.81,73634.3,-1.97,-3.75,-3.63,0,*57
1510920046.44,59202,8.81,73632.8,-1.97,-3.63,-3.63,0,*53
1510920047.66,59203,8.81,73634.5,-1.97,-3.79,-3.67,0,*5D
1510920048.86,59204,8.81,73632.8,-1.97,-3.79,-3.75,0,*59
1510920050.06,59205,8.81,73632.3,-1.97,-3.91,-3.79,0,*52
1510920051.25,59206,8.81,73634.0,-1.97,-3.87,-3.91,0,*50
1510920052.48,59207,8.81,73630.5,-1.99,-3.95,-3.95,0,*58
1510920053.71,59208,8.81,73630.5,-1.99,-3.83,-3.79,0,*52
1510920054.91,59209,8.81,73630.3,-1.97,-3.79,-3.75,0,*54
1510920056.11,59210,8.81,73632.0,-1.97,-3.79,-3.79,0,*50
1510920057.33,59211,8.81,73628.3,-1.99,-4.09,-4.17,0,*50
1510920058.55,59212,8.81,73630.8,-1.99,-4.05,-3.91,0,*56
1510920059.75,59213,8.81,73626.5,-1.97,-3.79,-3.79,0,*53
1510920060.95,59214,8.88,73632.0,-2.01,-3.83,-3.83,0,*58
1510920062.18,59215,8.81,73628.5,-1.99,-3.91,-3.79,0,*5D
1510920063.41,59216,8.81,73632.8,-1.99,-3.91,-3.83,0,*5B
1510920064.63,59217,8.81,73628.0,-1.99,-3.83,-3.83,0,*59
1510920065.86,59218,8.81,73630.0,-1.99,-3.83,-3.83,0,*56
1510920067.06,59219,8.81,73630.0,-2.01,-3.95,-3.91,0,*51
1510920068.29,59220,8.81,73630.3,-1.99,-3.83,-3.79,0,*58
1510920069.51,59221,8.81,73630.3,-1.99,-4.05,-3.95,0,*52
1510920070.71,59222,8.81,73624.8,-2.01,-4.05,-3.91,0,*57
1510920071.9,59223,8.81,73624.5,-2.01,-4.05,-3.91,0,*56
1510920073.11,59224,8.81,73624.5,-2.01,-3.91,-3.91,0,*5B
1510920074.31,59225,8.81,73624.5,-2.01,-3.95,-3.91,0,*5E
1510920075.51,59226,8.81,73620.8,-2.01,-3.83,-3.83,0,*59
1510920076.72,59227,8.81,73626.8,-2.05,-3.83,-3.75,0,*55
1510920077.95,59228,8.81,73624.3,-2.01,-3.71,-3.71,0,*57
1510920079.18,59229,8.81,73624.5,-1.99,-3.91,-3.83,0,*57
1510920080.4,59230,8.81,73628.8,-2.01,-3.83,-3.71,0,*53
1510920081.6,59231,8.81,73624.8,-1.97,-3.79,-3.79,0,*53
1510920082.83,59232,8.81,73624.3,-2.01,-3.71,-3.67,0,*5B
1510920084.07,59233,8.81,73626.5,-2.01,-3.71,-3.67,0,*5A
1510920085.3,59234,8.81,73628.0,-2.01,-3.67,-3.67,0,*5A
1510920086.54,59235,8.81,73628.0,-2.01,-3.67,-3.63,0,*5F
1510920087.79,59236,8.81,73628.3,-1.99,-3.83,-3.71,0,*57
1510920088.99,59237,8.81,73630.3,-2.01,-3.79,-3.79,0,*59
1510920090.22,59238,8.81,73628.8,-2.01,-3.67,-3.71,0,*51
1510920091.43,59239,8.81,73630.8,-2.01,-3.83,-3.79,0,*52
1510920092.63,59240,8.81,73628.0,-2.05,-3.83,-3.87,0,*59
1510920093.83,59241,8.81,73630.5,-2.05,-3.87,-3.83,0,*58
1510920095.03,59242,8.81,73628.5,-2.05,-3.83,-3.83,0,*5F
1510920096.27,59243,8.81,73628.5,-2.01,-3.67,-3.67,0,*5A
1510920097.51,59244,8.81,73628.0,-2.01,-3.63,-3.63,0,*5D
1510920098.75,59245,8.81,73630.3,-2.01,-3.63,-3.63,0,*5C
1510920099.98,59246,8.81,73630.8,-2.01,-3.55,-3.55,0,*5F
1510920101.21,59247,8.81,73630.0,-2.01,-3.67,-3.67,0,*5E
1510920102.45,59248,8.81,73628.3,-2.01,-3.67,-3.71,0,*56
1510920103.67,59249,8.81,73628.3,-2.01,-3.79,-3.71,0,*58
1510920104.91,59250,8.81,73628.3,-2.01,-3.67,-3.67,0,*58
1510920106.14,59251,8.81,73630.0,-2.01,-3.55,-3.55,0,*59
1510920107.4,59252,8.81,73630.3,-1.99,-3.43,-3.55,0,*5F
1510920108.67,59253,8.81,73626.0,-1.99,-3.43,-3.43,0,*59
1510920109.91,59254,8.81,73626.5,-1.99,-3.31,-3.43,0,*5B
1510920111.16,59255,8.81,73630.8,-1.99,-3.39,-3.43,0,*52
1510920112.4,59256,8.81,73628.0,-2.01,-3.43,-3.51,0,*5D
1510920113.63,59257,8.81,73630.0,-2.01,-3.43,-3.51,0,*5C
1510920114.9,59258,8.81,73630.5,-1.99,-3.51,-3.51,0,*52
1510920116.14,59259,8.81,73628.8,-2.01,-3.63,-3.55,0,*54
1510920117.37,59260,8.81,73630.8,-2.01,-3.55,-3.55,0,*5B
1510920118.61,59261,8.81,73628.0,-2.01,-3.63,-3.67,0,*5E
1510920119.87,59262,8.81,73624.3,-1.99,-3.67,-3.71,0,*5C
1510920121.14,59263,8.81,73626.0,-1.99,-3.67,-3.71,0,*5D
1510920122.4,59264,8.81,73630.0,-1.99,-3.63,-3.63,0,*5D
1510920123.67,59265,8.81,73628.0,-1.99,-3.63,-3.55,0,*59
1510920124.93,59266,8.81,73628.3,-1.99,-3.55,-3.55,0,*5F
1510920126.19,59267,8.81,73634.0,-1.99,-3.55,-3.55,0,*5E
1510920127.46,59268,8.81,73632.3,-1.99,-3.63,-3.63,0,*51
1510920128.7,59269,8.81,73634.8,-1.97,-3.51,-3.59,0,*56
1510920129.94,59270,8.81,73632.5,-1.97,-3.59,-3.47,0,*59
1510920131.18,59271,8.81,73636.0,-1.97,-3.59,-3.63,0,*5E
1510920132.41,59272,8.81,73636.8,-1.97,-3.51,-3.51,0,*54
1510920133.65,59273,8.81,73636.0,-1.97,-3.59,-3.51,0,*5D
1510920134.92,59274,8.81,73634.0,-1.95,-3.51,-3.51,0,*50
1510920136.16,59275,8.81,73632.3,-1.97,-3.63,-3.63,0,*53
1510920137.35,59276,8.81,73632.0,-1.97,-3.87,-3.87,0,*50
1510920138.54,59277,8.81,73628.3,-1.97,-3.87,-3.79,0,*50
1510920139.74,59278,8.81,73634.5,-1.97,-3.79,-3.87,0,*5F
1510920140.94,59279,8.81,73632.3,-1.97,-3.75,-3.75,0,*5F
1510920142.17,59280,8.81,73634.0,-1.97,-3.67,-3.67,0,*59
1510920143.41,59281,8.81,73634.8,-1.97,-3.67,-3.67,0,*58
1510920144.63,59282,8.81,73636.3,-1.97,-3.67,-3.75,0,*58
1510920145.87,59283,8.81,73632.8,-1.97,-3.67,-3.59,0,*57
1510920147.1,59284,8.81,73632.0,-1.97,-3.63,-3.67,0,*59
1510920148.34,59285,8.81,73638.3,-1.97,-3.63,-3.63,0,*5C
1510920149.57,59286,8.81,73632.5,-1.97,-3.67,-3.67,0,*5F
1510920150.79,59287,8.81,73632.0,-1.97,-3.67,-3.75,0,*5D
1510920152.05,59288,8.81,73634.5,-1.99,-3.67,-3.67,0,*5F
1510920153.26,59289,8.81,73632.5,-1.97,-3.91,-3.91,0,*50
1510920154.48,59290,8.81,73630.8,-1.97,-3.91,-4.01,0,*56
1510920155.7,59291,8.81,73632.5,-1.97,-4.05,-4.01,0,*5D
1510920156.9,59292,8.81,73634.5,-1.97,-3.91,-3.91,0,*5A
1510920158.13,59293,8.81,73632.5,-1.99,-3.83,-3.79,0,*50
1510920159.35,59294,8.81,73632.8,-1.97,-3.75,-3.67,0,*5F
1510920160.56,59295,8.81,73634.3,-1.97,-3.75,-3.67,0,*5E
1510920161.8,59296,8.81,73632.3,-1.97,-3.67,-3.63,0,*5A
1510920163.04,59297,8.81,73634.8,-1.97,-3.63,-3.59,0,*56
1510920164.3,59298,8.81,73632.8,-1.99,-3.55,-3.55,0,*5E
1510920165.54,59299,8.81,73636.0,-1.97,-3.63,-3.59,0,*58
1510920166.78,59300,8.81,73638.0,-1.97,-3.67,-3.63,0,*54
1510920167.98,59301,8.81,73636.0,-1.97,-3.79,-3.79,0,*51
1510920169.18,59302,8.81,73630.5,-1.97,-3.79,-3.79,0,*52
1510920170.44,59303,8.81,73632.3,-1.99,-3.55,-3.63,0,*58
1510920171.71,59304,8.81,73628.3,-1.99,-3.63,-3.63,0,*5A
1510920172.97,59305,8.81,73634.3,-1.99,-3.55,-3.55,0,*5B
1510920174.21,59306,8.81,73632.5,-1.97,-3.51,-3.51,0,*56
1510920175.45,59307,8.81,73634.8,-1.97,-3.51,-3.47,0,*50
1510920176.71,59308,8.81,73634.5,-1.95,-3.51,-3.47,0,*5D
1510920177.98,59309,8.81,73632.0,-1.95,-3.47,-3.47,0,*5B
1510920179.22,59310,8.81,73634.0,-1.97,-3.47,-3.59,0,*5E
1510920180.49,59311,8.81,73634.8,-1.95,-3.51,-3.51,0,*52
1510920181.72,59312,8.81,73636.5,-1.97,-3.47,-3.47,0,*53
1510920182.96,59313,8.81,73628.8,-1.97,-3.51,-3.51,0,*52
1510920184.23,59314,8.81,73634.3,-1.95,-3.59,-3.63,0,*5E
1510920185.47,59315,8.81,73630.5,-1.97,-3.63,-3.59,0,*5D
1510920186.74,59316,8.81,73628.5,-1.95,-3.59,-3.59,0,*55
1510920187.98,59317,8.81,73630.3,-1.97,-3.63,-3.63,0,*56
1510920189.25,59318,8.81,73632.0,-1.95,-3.63,-3.59,0,*52
1510920190.52,59319,8.81,73636.0,-1.95,-3.63,-3.59,0,*53
1510920191.79,59320,8.81,73632.8,-1.95,-3.63,-3.51,0,*51
1510920193.03,59321,8.81,73634.3,-1.97,-3.59,-3.51,0,*5B
1510920194.3,59322,8.81,73634.5,-1.95,-3.51,-3.59,0,*5A
1510920195.58,59323,8.81,73630.3,-1.95,-3.59,-3.59,0,*53
1510920196.84,59324,8.81,73630.8,-1.95,-3.67,-3.67,0,*54
1510920198.08,59325,8.81,73630.3,-1.97,-3.63,-3.59,0,*5E
1510920199.35,59326,8.81,73632.0,-1.95,-3.51,-3.59,0,*5E
1510920200.55,59327,8.81,73634.3,-1.97,-3.79,-3.79,0,*55
1510920201.77,59328,8.81,73634.0,-1.95,-3.87,-3.87,0,*58
1510920203.0,59329,8.81,73630.5,-1.95,-3.87,-3.79,0,*58
1510920204.22,59330,8.81,73632.0,-1.97,-3.91,-4.01,0,*5D
1510920205.45,59331,8.81,73632.3,-1.95,-3.91,-3.91,0,*50
1510920206.68,59332,8.81,73626.0,-1.95,-4.13,-4.13,0,*53
1510920207.89,59333,8.81,73626.8,-1.97,-4.05,-4.01,0,*54
1510920209.08,59334,8.81,73628.5,-1.97,-4.05,-4.05,0,*57
1510920210.27,59335,8.81,73628.5,-1.97,-3.87,-3.87,0,*56
1510920211.48,59336,8.81,73630.0,-1.97,-3.79,-3.75,0,*59
1510920212.74,59337,8.81,73630.5,-1.99,-3.71,-3.71,0,*5A
1510920213.94,59338,8.81,73628.0,-1.97,-3.91,-3.91,0,*5B
1510920215.19,59339,8.81,73630.0,-1.95,-4.01,-3.87,0,*51
1510920216.42,59340,8.81,73634.3,-1.99,-3.91,-3.95,0,*5E
1510920217.62,59341,8.81,73630.8,-1.97,-3.91,-3.91,0,*55
1510920218.84,59342,8.81,73628.3,-1.97,-3.91,-4.01,0,*58
1510920220.04,59343,8.81,73626.8,-1.97,-3.79,-3.87,0,*56
1510920221.24,59344,8.81,73624.5,-1.97,-3.87,-3.79,0,*51
1510920222.46,59345,8.81,73628.5,-1.99,-3.79,-3.83,0,*5A
1510920223.66,59346,8.81,73624.3,-1.97,-3.79,-3.79,0,*52
1510920224.89,59347,8.81,73630.0,-1.99,-3.95,-4.05,0,*53
1510920226.12,59348,8.81,73628.8,-1.99,-3.91,-3.83,0,*51
1510920227.35,59349,8.81,73630.0,-1.99,-3.91,-3.95,0,*57
1510920228.57,59350,8.81,73634.5,-1.99,-3.95,-3.95,0,*5B
1510920229.77,59351,8.81,73630.8,-2.01,-3.83,-3.79,0,*5D
1510920231.02,59352,8.81,73626.3,-1.99,-3.79,-3.71,0,*51
1510920232.22,59353,8.81,73636.0,-2.01,-3.79,-3.83,0,*5F
1510920233.45,59354,8.81,73630.8,-1.99,-3.95,-3.91,0,*5B
1510920234.67,59355,8.81,73626.0,-1.99,-4.09,-4.05,0,*52
1510920235.86,59356,8.81,73626.3,-2.01,-4.17,-4.05,0,*5C
1510920237.08,59357,8.81,73628.8,-1.99,-4.05,-4.09,0,*50
1510920238.31,59358,8.81,73618.8,-1.99,-3.95,-4.05,0,*5D
1510920239.51,59359,8.81,73626.5,-2.01,-3.95,-4.05,0,*5E
1510920240.72,59360,8.81,73626.8,-1.99,-4.17,-4.17,0,*58
1510920241.91,59361,8.81,73626.5,-2.01,-4.17,-4.17,0,*5B
1510920243.13,59362,8.81,73626.5,-1.99,-4.05,-4.05,0,*5A
1510920244.33,59363,8.81,73628.8,-2.01,-3.95,-3.91,0,*5D
1510920245.53,59364,8.81,73628.3,-2.05,-3.95,-3.87,0,*59
1510920246.76,59365,8.81,73628.5,-2.05,-4.01,-4.09,0,*53
1510920247.99,59366,8.81,73628.5,-2.05,-4.01,-3.95,0,*52
1510920249.19,59367,8.81,73632.3,-2.05,-3.87,-3.95,0,*5A
1510920250.41,59368,8.81,73632.8,-2.05,-3.71,-3.83,0,*5B
1510920251.61,59369,8.81,73630.5,-2.01,-3.79,-3.79,0,*53
1510920252.84,59370,8.81,73632.0,-1.99,-3.79,-3.83,0,*5C
1510920254.04,59371,8.81,73630.0,-2.01,-3.79,-3.79,0,*5A
1510920255.28,59372,8.81,73628.3,-2.01,-3.67,-3.67,0,*59
1510920256.52,59373,8.81,73632.3,-1.99,-3.79,-3.71,0,*52
1510920257.76,59374,8.81,73630.3,-2.01,-3.63,-3.63,0,*5F
1510920258.99,59375,8.81,73630.0,-2.05,-3.71,-3.75,0,*5E
1510920260.22,59376,8.81,73630.5,-2.01,-3.67,-3.67,0,*5D
1510920261.46,59377,8.81,73630.0,-2.01,-3.67,-3.67,0,*5C
1510920262.69,59378,8.81,73628.0,-2.01,-3.67,-3.71,0,*54
1510920263.93,59379,8.81,73632.8,-2.01,-3.67,-3.67,0,*52
1510920265.16,59380,8.81,73632.0,-2.01,-3.55,-3.55,0,*54
1510920266.4,59381,8.81,73630.8,-2.01,-3.55,-3.63,0,*50
1510920267.63,59382,8.81,73634.8,-2.01,-3.55,-3.55,0,*56
1510920268.87,59383,8.81,73634.0,-2.01,-3.55,-3.55,0,*57
1510920270.1,59384,8.81,73636.5,-2.01,-3.67,-3.55,0,*51
1510920271.34,59385,8.81,73634.0,-2.01,-3.63,-3.71,0,*52
1510920272.57,59386,8.81,73632.8,-1.99,-3.83,-3.83,0,*50
1510920273.8,59387,8.81,73634.5,-2.01,-3.71,-3.67,0,*54
1510920275.04,59388,8.81,73634.0,-2.01,-3.71,-3.67,0,*5B
1510920276.24,59389,8.81,73630.8,-2.01,-3.83,-3.83,0,*5D
1510920277.44,59390,8.81,73630.0,-2.01,-3.79,-3.79,0,*55
1510920278.64,59391,8.81,73630.0,-2.01,-3.79,-3.83,0,*51
1510920279.86,59392,8.81,73628.8,-2.01,-3.83,-3.71,0,*5A
1510920281.09,59393,8.81,73630.0,-1.99,-3.83,-3.83,0,*54
1510920282.28,59394,8.81,73628.8,-2.01,-4.05,-4.05,0,*51
1510920283.47,59395,8.81,73628.3,-2.01,-4.09,-4.09,0,*50
1510920284.67,59396,8.81,73624.5,-2.05,-4.13,-4.09,0,*5C
1510920285.92,59397,8.81,73630.3,-2.05,-4.01,-4.01,0,*56
1510920287.15,59398,8.81,73630.8,-2.07,-4.13,-4.21,0,*5A
1510920288.4,59399,8.81,73632.3,-2.05,-4.01,-4.01,0,*58
1510920289.62,59400,8.81,73630.5,-2.05,-4.21,-4.21,0,*5F
1510920290.85,59401,8.81,73628.3,-2.07,-4.21,-4.25,0,*58
1510920292.07,59402,8.81,73628.0,-2.07,-4.37,-4.37,0,*5F
1510920293.32,59403,8.81,73626.3,-2.07,-4.09,-4.01,0,*56
1510920294.55,59404,8.81,73628.3,-2.07,-3.95,-3.83,0,*5E
1510920295.83,59405,8.81,73626.0,-2.07,-4.01,-4.01,0,*58
1510920297.03,59406,8.81,73624.8,-2.05,-4.09,-4.09,0,*59
1510920298.28,59407,8.81,73620.8,-2.07,-3.95,-4.01,0,*50
1510920299.54,59408,8.81,73618.3,-2.07,-3.95,-4.01,0,*5F
1510920300.77,59409,8.81,73624.3,-2.07,-3.83,-3.87,0,*50
1510920301.99,59410,8.81,73624.0,-2.07,-3.87,-3.87,0,*5C
1510920303.25,59411,8.81,73626.0,-2.07,-3.95,-4.01,0,*57
1510920304.47,59412,8.81,73630.0,-2.07,-3.87,-3.87,0,*5E
1510920305.69,59413,8.81,73628.0,-2.07,-3.87,-3.83,0,*5B
1510920306.92,59414,8.81,73630.5,-2.07,-3.83,-3.83,0,*58
1510920308.18,59415,8.81,73632.3,-2.07,-3.67,-3.75,0,*5A
1510920309.43,59416,8.81,73628.0,-2.07,-3.75,-3.67,0,*59
1510920310.65,59417,8.81,73632.3,-2.07,-3.87,-3.83,0,*5F
1510920311.88,59418,8.81,73630.0,-2.07,-3.83,-3.83,0,*54
1510920313.11,59419,8.81,73628.8,-2.07,-3.83,-3.83,0,*55
1510920314.3,59420,8.81,73634.8,-2.09,-3.87,-3.87,0,*51
1510920315.52,59421,8.81,73632.8,-2.09,-3.71,-3.75,0,*54
1510920316.73,59422,8.81,73632.5,-2.09,-3.75,-3.75,0,*53
1510920317.98,59423,8.81,73634.0,-2.07,-3.71,-3.75,0,*58
1510920319.25,59424,8.81,73634.3,-2.07,-3.59,-3.67,0,*56
1510920320.51,59425,8.81,73634.5,-2.07,-3.71,-3.71,0,*5A
1510920321.75,59426,8.81,73634.3,-2.07,-3.83,-3.83,0,*59
1510920322.97,59427,8.81,73634.3,-2.07,-3.87,-3.83,0,*5C
1510920324.22,59428,8.81,73634.3,-2.07,-3.71,-3.83,0,*5A
1510920325.47,59429,8.81,73630.3,-2.07,-3.71,-3.75,0,*52
1510920326.71,59430,8.81,73628.0,-2.05,-3.67,-3.67,0,*5C
1510920327.98,59431,8.81,73628.0,-2.07,-3.59,-3.59,0,*5F
1510920329.26,59432,8.81,73630.0,-2.07,-3.59,-3.59,0,*5C
1510920330.54,59433,8.81,73630.0,-2.07,-3.59,-3.59,0,*5D
1510920331.8,59434,8.81,73630.0,-2.07,-3.55,-3.55,0,*5A
1510920333.07,59435,8.81,73628.3,-2.07,-3.59,-3.55,0,*57
1510920334.31,59436,8.81,73630.0,-2.05,-3.59,-3.55,0,*56
1510920335.55,59437,8.81,73628.5,-2.05,-3.47,-3.55,0,*58
1510920336.79,59438,8.81,73632.5,-2.05,-3.55,-3.55,0,*54
1510920338.03,59439,8.81,73630.5,-2.05,-3.55,-3.55,0,*55
1510920339.27,59440,8.81,73630.5,-2.01,-3.71,-3.67,0,*58
1510920340.47,59441,8.81,73632.0,-2.01,-3.83,-3.83,0,*5E
1510920341.71,59442,8.81,73634.8,-2.05,-3.71,-3.71,0,*59
1510920342.94,59443,8.81,73634.0,-2.05,-3.71,-3.71,0,*58
1510920344.18,59444,8.81,73632.3,-2.05,-3.71,-3.67,0,*58
1510920345.39,59445,8.81,73632.5,-2.05,-3.75,-3.75,0,*5E
1510920346.64,59446,8.81,73626.5,-2.05,-3.71,-3.59,0,*57
1510920347.84,59447,8.81,73628.0,-2.05,-3.75,-3.83,0,*55
1510920349.07,59448,8.81,73634.0,-2.07,-3.75,-3.83,0,*58
1510920350.31,59449,8.81,73634.5,-2.01,-3.67,-3.67,0,*56
1510920351.51,59450,8.81,73628.0,-2.01,-3.91,-3.91,0,*5E
1510920352.74,59451,8.81,73628.3,-2.07,-4.13,-4.09,0,*52
1510920353.99,59452,8.81,73630.5,-2.05,-4.01,-4.01,0,*58
1510920355.19,59453,8.81,73626.3,-2.05,-3.87,-3.95,0,*5A
1510920356.39,59454,8.81,73624.0,-2.05,-3.83,-3.87,0,*5A
1510920357.61,59455,8.81,73624.5,-2.07,-3.87,-3.87,0,*5D
1510920358.87,59456,8.81,73626.0,-2.05,-4.01,-4.01,0,*5C
1510920360.1,59457,8.81,73630.5,-2.07,-3.83,-3.95,0,*58
1510920361.3,59458,8.81,73628.5,-2.01,-3.79,-3.79,0,*56
1510920362.51,59459,8.81,73628.5,-2.05,-3.83,-3.83,0,*53
1510920363.76,59460,8.81,73630.5,-2.05,-4.01,-4.01,0,*59
1510920364.99,59461,8.81,73630.0,-2.05,-4.01,-3.95,0,*52
1510920366.19,59462,8.81,73628.0,-2.05,-3.95,-3.95,0,*5B
1510920367.39,59463,8.81,73632.3,-2.05,-3.95,-3.95,0,*5A
1510920368.62,59464,8.81,73634.5,-2.07,-3.83,-3.83,0,*5F
1510920369.85,59465,8.81,73630.8,-2.07,-3.75,-3.75,0,*5E
1510920371.08,59466,8.81,73634.8,-2.05,-3.71,-3.75,0,*5B
1510920372.31,59467,8.81,73632.0,-2.07,-3.83,-3.83,0,*5C
1510920373.54,59468,8.81,73630.3,-2.07,-3.75,-3.83,0,*5A
1510920374.77,59469,8.81,73632.8,-2.07,-3.75,-3.75,0,*52
1510920376.01,59470,8.81,73632.8,-2.07,-3.75,-3.75,0,*5A
1510920377.24,59471,8.81,73630.5,-2.05,-3.95,-4.01,0,*53
1510920378.46,59472,8.81,73628.3,-2.07,-4.09,-4.13,0,*53
1510920379.7,59473,8.81,73630.5,-2.07,-3.83,-3.75,0,*50
1510920380.93,59474,8.81,73634.0,-2.07,-3.75,-3.75,0,*5E
1510920382.16,59475,8.81,73632.0,-2.09,-4.01,-4.05,0,*55
1510920383.4,59476,8.81,73630.5,-2.07,-3.71,-3.83,0,*51
1510920384.66,59477,8.81,73634.5,-2.07,-4.01,-3.87,0,*54
1510920385.91,59478,8.81,73634.0,-2.07,-4.01,-3.95,0,*58
1510920387.13,59479,8.81,73632.0,-2.07,-4.13,-4.09,0,*58
1510920388.36,59480,8.81,73632.5,-2.07,-3.95,-3.95,0,*55
1510920389.62,59481,8.81,73634.5,-2.07,-4.01,-3.87,0,*5D
1510920390.87,59482,8.81,73632.3,-2.07,-3.95,-4.01,0,*5D
1510920392.09,59483,8.81,73634.5,-2.09,-4.05,-4.01,0,*5C
1510920393.31,59484,8.81,73638.5,-2.09,-4.01,-3.87,0,*56
1510920394.56,59485,8.81,73634.3,-2.11,-3.75,-3.71,0,*53
1510920395.77,59486,8.81,73632.5,-2.09,-3.75,-3.75,0,*5D
1510920397.0,59487,8.81,73636.0,-2.09,-3.63,-3.71,0,*5F
1510920398.24,59488,8.81,73632.5,-2.09,-3.71,-3.71,0,*53
1510920399.44,59489,8.81,73632.8,-2.09,-3.79,-3.75,0,*5E
1510920400.65,59490,8.81,73636.3,-2.09,-3.79,-3.79,0,*5A
1510920401.88,59491,8.81,73634.0,-2.07,-3.83,-3.83,0,*55
1510920403.11,59492,8.81,73638.0,-2.07,-3.75,-3.75,0,*56
1510920404.36,59493,8.81,73634.5,-2.07,-3.71,-3.75,0,*53
1510920405.63,59494,8.81,73632.8,-2.07,-3.71,-3.71,0,*50
1510920406.9,59495,8.81,73632.8,-2.07,-3.71,-3.59,0,*5B
1510920408.17,59496,8.81,73632.3,-2.07,-3.71,-3.67,0,*55
1510920409.39,59497,8.81,73634.0,-2.05,-3.71,-3.75,0,*55
1510920410.61,59498,8.81,73634.0,-2.05,-3.83,-3.71,0,*53
1510920411.86,59499,8.81,73636.5,-2.07,-3.75,-3.71,0,*59
1510920413.13,59500,8.81,73638.0,-2.07,-3.67,-3.67,0,*5C
1510920414.4,59501,8.81,73638.0,-2.07,-3.59,-3.67,0,*50
1510920415.62,59502,8.81,73634.0,-2.05,-3.75,-3.67,0,*5F
1510920416.85,59503,8.81,73632.0,-2.07,-3.87,-3.83,0,*5B
1510920418.07,59504,8.81,73636.0,-2.07,-3.87,-3.87,0,*58
1510920419.3,59505,8.81,73634.5,-2.07,-3.95,-3.95,0,*59
1510920420.52,59506,8.81,73638.3,-2.07,-3.87,-3.95,0,*59
1510920421.75,59507,8.81,73632.8,-2.07,-3.87,-3.87,0,*5B
1510920422.98,59508,8.81,73632.3,-2.07,-3.83,-3.83,0,*54
1510920424.21,59509,8.81,73632.3,-2.07,-3.83,-3.83,0,*55
1510920425.43,59510,8.81,73632.0,-2.07,-3.87,-3.87,0,*5D
1510920426.69,59511,8.81,73636.8,-2.07,-4.01,-3.95,0,*56
1510920427.89,59512,8.81,73632.3,-2.05,-3.95,-3.95,0,*5D
1510920429.12,59513,8.81,73634.8,-2.07,-3.83,-3.75,0,*57
1510920430.36,59514,8.81,73632.0,-2.05,-3.71,-3.67,0,*5C
1510920431.61,59515,8.81,73632.5,-2.05,-3.59,-3.59,0,*5A
1510920432.88,59516,8.81,73634.0,-2.07,-3.55,-3.55,0,*5B
1510920434.15,59517,8.81,73632.3,-2.07,-3.59,-3.55,0,*56
1510920435.41,59518,8.81,73632.8,-2.07,-3.71,-3.71,0,*55
1510920436.65,59519,8.81,73636.5,-2.07,-3.75,-3.75,0,*54
1510920437.88,59520,8.81,73632.5,-2.07,-3.83,-3.83,0,*5E
1510920439.11,59521,8.81,73632.8,-2.07,-3.83,-3.75,0,*56
1510920440.38,59522,8.81,73636.0,-2.07,-3.71,-3.71,0,*5C
1510920441.63,59523,8.81,73634.8,-2.07,-3.75,-3.71,0,*59
1510920442.9,59524,8.81,73632.8,-2.07,-3.67,-3.59,0,*57
1510920444.14,59525,8.81,73632.5,-2.05,-3.67,-3.67,0,*59
1510920445.42,59526,8.81,73632.3,-2.07,-3.59,-3.59,0,*58
1510920446.68,59527,8.81,73638.0,-2.07,-3.67,-3.67,0,*59
1510920447.93,59528,8.81,73632.3,-2.07,-3.75,-3.71,0,*52
1510920449.17,59529,8.81,73632.3,-2.05,-3.71,-3.71,0,*55
1510920450.45,59530,8.81,73634.0,-2.07,-3.59,-3.59,0,*5F
1510920451.72,59531,8.81,73630.5,-2.07,-3.47,-3.47,0,*5E
1510920452.96,59532,8.81,73634.3,-2.05,-3.47,-3.47,0,*5F
1510920454.18,59533,8.81,73632.5,-2.05,-3.55,-3.35,0,*58
1510920455.45,59534,8.81,73634.3,-2.07,-3.47,-3.47,0,*5B
1510920456.69,59535,8.81,73632.5,-2.05,-3.47,-3.47,0,*58
1510920457.93,59536,8.81,73636.3,-2.05,-3.59,-3.55,0,*57
1510920459.17,59537,8.81,73632.3,-2.05,-3.67,-3.67,0,*5A
1510920460.41,59538,8.81,73630.3,-2.05,-3.71,-3.71,0,*55
1510920461.66,59539,8.81,73634.3,-2.05,-3.59,-3.59,0,*54
1510920462.91,59540,8.81,73634.8,-2.05,-3.59,-3.59,0,*5A
1510920464.15,59541,8.81,73630.0,-2.05,-3.59,-3.55,0,*57
1510920465.39,59542,8.81,73628.3,-2.05,-3.67,-3.67,0,*58
1510920466.64,59543,8.81,73634.5,-2.05,-3.67,-3.59,0,*54
1510920467.89,59544,8.81,73632.8,-2.05,-3.59,-3.59,0,*5E
1510920469.14,59545,8.81,73630.3,-2.05,-3.59,-3.59,0,*5F
1510920470.37,59546,8.81,73632.8,-2.01,-3.55,-3.55,0,*58
1510920471.61,59547,8.81,73632.8,-2.01,-3.63,-3.55,0,*5C
1510920472.85,59548,8.81,73630.5,-2.05,-3.59,-3.55,0,*5E
1510920474.09,59549,8.81,73628.5,-2.01,-3.63,-3.55,0,*52
1510920475.33,59550,8.81,73628.8,-2.01,-3.71,-3.71,0,*5F
1510920476.56,59551,8.81,73628.8,-2.01,-3.71,-3.71,0,*5E
1510920477.76,59552,8.81,73630.0,-2.01,-3.83,-3.95,0,*5A
1510920478.96,59553,8.81,73628.8,-2.01,-3.91,-3.83,0,*5F
1510920480.16,59554,8.81,73628.8,-2.01,-3.83,-3.79,0,*5E
1510920481.4,59555,8.81,73628.8,-2.01,-3.67,-3.63,0,*5E
1510920482.62,59556,8.81,73630.5,-2.01,-3.71,-3.79,0,*51
1510920483.85,59557,8.81,73624.0,-2.05,-3.95,-4.01,0,*56
1510920485.05,59558,8.81,73624.8,-2.05,-3.95,-3.87,0,*50
1510920486.25,59559,8.81,73628.0,-2.05,-3.87,-3.83,0,*56
1510920487.45,59560,8.81,73632.3,-2.05,-3.83,-3.83,0,*58
1510920488.67,59561,8.81,73628.8,-2.07,-3.87,-3.83,0,*5F
1510920489.9,59562,8.81,73632.8,-2.05,-4.01,-3.95,0,*50
1510920491.16,59563,8.81,73628.8,-2.05,-4.01,-4.01,0,*5B
1510920492.36,59564,8.81,73632.3,-2.05,-3.95,-3.95,0,*5C
1510920493.59,59565,8.81,73634.3,-2.05,-4.01,-3.95,0,*57
1510920494.79,59566,8.81,73630.5,-2.05,-3.75,-3.75,0,*5E
1510920495.99,59567,8.81,73632.8,-2.05,-3.95,-3.95,0,*5F
1510920497.22,59568,8.81,73634.5,-2.07,-3.87,-3.83,0,*56
1510920498.5,59569,8.81,73632.8,-2.07,-4.01,-4.01,0,*53
1510920499.72,59570,8.81,73628.8,-2.07,-4.09,-3.95,0,*59
1510920500.97,59571,8.81,73632.5,-2.07,-3.83,-3.71,0,*57
1510920502.24,59572,8.81,73628.5,-2.07,-3.67,-3.67,0,*59
1510920503.48,59573,8.81,73630.0,-2.05,-3.67,-3.59,0,*57
1510920504.75,59574,8.81,73632.0,-2.07,-3.71,-3.67,0,*58
1510920505.95,59575,8.81,73632.8,-2.05,-3.87,-3.87,0,*5C
1510920507.17,59576,8.81,73628.0,-2.07,-3.95,-3.87,0,*5E
1510920508.4,59577,8.81,73630.0,-2.05,-3.95,-4.01,0,*54
1510920509.6,59578,8.81,73630.0,-2.05,-3.87,-3.75,0,*5C
1510920510.86,59579,8.81,73630.5,-2.07,-4.01,-3.87,0,*5B
1510920512.11,59580,8.81,73632.5,-2.07,-4.01,-3.95,0,*5E
1510920513.39,59581,8.81,73624.0,-2.07,-4.01,-4.01,0,*55
1510920514.59,59582,8.81,73626.8,-2.05,-3.87,-3.83,0,*50
1510920515.79,59583,8.81,73628.0,-2.05,-3.87,-3.83,0,*51
1510920517.01,59584,8.81,73628.0,-2.07,-3.87,-3.83,0,*54
1510920518.24,59585,8.81,73630.3,-2.07,-3.83,-3.87,0,*55